TimePST,TemperatureF,Dew PointF,Humidity,Sea Level PressureIn,VisibilityMPH,Wind Direction,Wind SpeedMPH,Gust SpeedMPH,PrecipitationIn,Events,Conditions,WindDirDegrees,DateUTC
12:18 AM,24.8,24.8,100,30.18,5.0,ENE,1.2,-,N/A,,Clear,60,2013-01-03 08:18:00
12:28 AM,24.8,24.8,100,30.18,2.0,North,-9999.0,-,N/A,,Clear,0,2013-01-03 08:28:00
12:33 AM,24.8,24.8,100,30.18,2.0,Variable,1.2,-,N/A,,Clear,0,2013-01-03 08:33:00
12:38 AM,24.8,24.8,100,30.19,5.0,East,1.2,-,N/A,,Clear,100,2013-01-03 08:38:00
12:43 AM,24.8,24.8,100,30.18,10.0,SSE,2.3,-,N/A,,Clear,160,2013-01-03 08:43:00
12:58 AM,22.5,21.9,98,30.21,9.0,SSE,2.3,-,N/A,,Clear,160,2013-01-03 08:58:00
1:08 AM,24.8,23.0,93,30.19,10.0,SSE,2.3,-,N/A,,Clear,150,2013-01-03 09:08:00
1:23 AM,23.0,23.0,100,30.19,7.0,ESE,2.3,-,N/A,,Clear,120,2013-01-03 09:23:00
1:58 AM,22.6,22.3,99,30.22,7.0,Calm,Calm,-,N/A,,Clear,0,2013-01-03 09:58:00
2:06 AM,21.2,21.2,100,30.19,9.0,East,2.3,-,N/A,,Partly Cloudy,80,2013-01-03 10:06:00
2:16 AM,21.2,21.2,100,30.19,8.0,East,4.6,-,N/A,,Mostly Cloudy,90,2013-01-03 10:16:00
2:51 AM,24.8,23.0,93,30.19,9.0,SSW,1.2,-,N/A,,Scattered Clouds,210,2013-01-03 10:51:00
2:58 AM,23.4,22.8,98,30.22,10.0,Calm,Calm,-,N/A,,Scattered Clouds,0,2013-01-03 10:58:00
3:13 AM,23.0,23.0,100,30.18,10.0,SE,2.3,-,N/A,,Clear,130,2013-01-03 11:13:00
3:28 AM,23.0,21.2,93,30.18,9.0,Calm,Calm,-,N/A,,Clear,0,2013-01-03 11:28:00
3:58 AM,23.0,22.6,99,30.19,8.0,Calm,Calm,-,N/A,,Clear,0,2013-01-03 11:58:00
4:08 AM,21.2,21.2,100,30.17,10.0,Calm,Calm,-,N/A,,Clear,0,2013-01-03 12:08:00
4:38 AM,21.2,19.4,93,30.16,9.0,Calm,Calm,-,N/A,,Clear,0,2013-01-03 12:38:00
4:58 AM,20.8,20.1,97,30.19,10.0,South,1.2,-,N/A,,Clear,180,2013-01-03 12:58:00
5:18 AM,19.4,19.4,100,30.15,9.0,SE,2.3,-,N/A,,Clear,130,2013-01-03 13:18:00
5:48 AM,21.2,19.4,93,30.14,10.0,Calm,Calm,-,N/A,,Clear,0,2013-01-03 13:48:00
5:55 AM,21.2,19.4,93,30.14,10.0,East,1.2,-,N/A,,Partly Cloudy,80,2013-01-03 13:55:00
5:58 AM,20.5,19.8,97,30.17,10.0,South,2.3,-,N/A,,Partly Cloudy,170,2013-01-03 13:58:00
6:08 AM,19.4,19.4,100,30.14,10.0,SW,1.2,-,N/A,,Mostly Cloudy,230,2013-01-03 14:08:00
6:38 AM,23.0,21.2,93,30.14,2.0,Calm,Calm,-,N/A,,Overcast,0,2013-01-03 14:38:00
6:43 AM,23.0,23.0,100,30.14,0.5,Calm,Calm,-,N/A,Fog,Light Freezing Fog,0,2013-01-03 14:43:00
6:48 AM,23.0,23.0,100,30.14,0.2,ESE,2.3,-,N/A,Fog,Light Freezing Fog,110,2013-01-03 14:48:00
6:58 AM,23.7,23.4,99,30.17,0.2,SE,2.3,-,N/A,Fog,Light Freezing Fog,130,2013-01-03 14:58:00
7:03 AM,24.8,24.8,100,30.13,0.2,ESE,3.5,-,N/A,Fog,Light Freezing Drizzle,120,2013-01-03 15:03:00
7:09 AM,24.8,24.8,100,30.13,0.2,East,4.6,-,N/A,Fog,Light Freezing Fog,90,2013-01-03 15:09:00
7:12 AM,23.0,23.0,100,30.13,0.2,ESE,2.3,-,N/A,Fog,Light Freezing Fog,120,2013-01-03 15:12:00
7:58 AM,24.4,24.1,99,30.15,0.2,SSE,2.3,-,N/A,Fog,Light Freezing Fog,160,2013-01-03 15:58:00
8:01 AM,24.8,24.8,100,30.12,0.2,Calm,Calm,-,N/A,Fog,Light Freezing Fog,0,2013-01-03 16:01:00
8:09 AM,24.8,24.8,100,30.13,0.5,Calm,Calm,-,N/A,Fog,Light Freezing Fog,0,2013-01-03 16:09:00
8:42 AM,24.8,24.8,100,30.13,0.2,Calm,Calm,-,N/A,Fog,Light Freezing Fog,0,2013-01-03 16:42:00
8:48 AM,24.8,24.8,100,30.14,0.2,Calm,Calm,-,N/A,Fog,Light Freezing Fog,0,2013-01-03 16:48:00
8:58 AM,24.8,24.3,98,30.16,0.2,Calm,Calm,-,0.00,Fog,Light Freezing Fog,0,2013-01-03 16:58:00
9:03 AM,24.8,24.8,100,30.13,0.2,NNE,1.2,-,N/A,Fog,Light Freezing Fog,30,2013-01-03 17:03:00
9:08 AM,24.8,24.8,100,30.13,0.2,Calm,Calm,-,N/A,Fog,Light Freezing Fog,0,2013-01-03 17:08:00
9:13 AM,24.8,24.8,100,30.14,0.2,Calm,Calm,-,N/A,Fog,Light Freezing Fog,0,2013-01-03 17:13:00
9:18 AM,24.8,24.8,100,30.14,0.2,Calm,Calm,-,N/A,Fog,Light Freezing Fog,0,2013-01-03 17:18:00
9:23 AM,24.8,24.8,100,30.14,0.2,SSW,1.2,-,N/A,Fog,Light Freezing Fog,200,2013-01-03 17:23:00
9:43 AM,26.6,26.6,100,30.15,0.2,Calm,Calm,-,N/A,Fog,Light Freezing Fog,0,2013-01-03 17:43:00
9:48 AM,26.6,26.6,100,30.15,0.2,Calm,Calm,-,N/A,Fog,Light Freezing Fog,0,2013-01-03 17:48:00
9:53 AM,26.6,26.6,100,30.15,0.5,Calm,Calm,-,N/A,Fog,Light Freezing Fog,0,2013-01-03 17:53:00
9:58 AM,28.4,28.4,100,30.17,0.8,East,2.3,-,N/A,,Clear,80,2013-01-03 17:58:00
10:03 AM,28.4,28.4,100,30.15,1.0,Calm,Calm,-,N/A,,Clear,0,2013-01-03 18:03:00
10:08 AM,28.4,28.4,100,30.15,5.0,Calm,Calm,-,N/A,,Clear,0,2013-01-03 18:08:00
10:40 AM,32.0,32.0,100,30.15,10.0,Variable,2.3,-,N/A,,Partly Cloudy,0,2013-01-03 18:40:00
10:50 AM,32.0,32.0,100,30.15,7.0,WNW,4.6,-,N/A,,Mostly Cloudy,300,2013-01-03 18:50:00
10:58 AM,32.0,32.0,100,30.18,2.5,Variable,2.3,-,N/A,,Mostly Cloudy,0,2013-01-03 18:58:00
11:03 AM,32.0,32.0,100,30.15,1.8,West,3.5,-,N/A,,Mostly Cloudy,280,2013-01-03 19:03:00
11:08 AM,32.0,32.0,100,30.15,0.8,NW,3.5,-,N/A,,Mist,320,2013-01-03 19:08:00
11:13 AM,32.0,32.0,100,30.15,0.5,West,3.5,-,N/A,Fog,Light Freezing Fog,280,2013-01-03 19:13:00
11:23 AM,32.0,32.0,100,30.15,0.8,SW,2.3,-,N/A,,Mist,230,2013-01-03 19:23:00
11:28 AM,32.0,32.0,100,30.15,1.0,WNW,1.2,-,N/A,,Mist,290,2013-01-03 19:28:00
11:33 AM,32.0,32.0,100,30.14,1.5,North,1.2,-,N/A,,Overcast,360,2013-01-03 19:33:00
11:38 AM,32.0,32.0,100,30.14,1.8,SSW,2.3,-,N/A,,Overcast,200,2013-01-03 19:38:00
11:43 AM,32.0,32.0,100,30.14,1.2,SW,3.5,-,N/A,,Overcast,230,2013-01-03 19:43:00
11:53 AM,32.0,32.0,100,30.14,2.0,Calm,Calm,-,N/A,,Overcast,0,2013-01-03 19:53:00
11:58 AM,31.8,31.5,99,30.17,2.5,Calm,Calm,-,N/A,,Overcast,0,2013-01-03 19:58:00
12:08 PM,32.0,32.0,100,30.13,3.0,WSW,2.3,-,N/A,,Overcast,250,2013-01-03 20:08:00
12:33 PM,32.0,32.0,100,30.12,9.0,SE,2.3,-,N/A,,Scattered Clouds,140,2013-01-03 20:33:00
12:58 PM,35.2,35.1,99,30.14,10.0,NE,1.2,-,N/A,,Clear,50,2013-01-03 20:58:00
1:58 PM,36.9,36.7,99,30.14,10.0,SW,3.5,-,N/A,,Partly Cloudy,220,2013-01-03 21:58:00
2:58 PM,36.3,32.9,87,30.17,10.0,SSE,3.5,-,N/A,,Mostly Cloudy,150,2013-01-03 22:58:00
3:58 PM,36.7,32.0,83,30.15,10.0,WSW,5.8,-,N/A,,Mostly Cloudy,240,2013-01-03 23:58:00
4:34 PM,35.6,32.0,87,30.13,10.0,Variable,1.2,-,N/A,Rain,Light Rain,0,2013-01-04 00:34:00
4:48 PM,35.6,32.0,87,30.11,10.0,ENE,2.3,-,N/A,,Overcast,60,2013-01-04 00:48:00
4:58 PM,36.3,32.5,86,30.14,10.0,ENE,1.2,-,0.00,,Overcast,60,2013-01-04 00:58:00
5:22 PM,35.6,32.0,87,30.11,10.0,WSW,3.5,-,N/A,Rain,Light Rain,240,2013-01-04 01:22:00
5:58 PM,36.1,34.5,94,30.16,8.0,Calm,Calm,-,0.00,Rain,Light Rain,0,2013-01-04 01:58:00
6:58 PM,35.6,35.4,99,30.14,7.0,Calm,Calm,-,0.08,Rain,Light Rain,0,2013-01-04 02:58:00
7:14 PM,35.6,35.6,100,30.12,10.0,North,3.5,-,N/A,,Overcast,360,2013-01-04 03:14:00
7:36 PM,35.6,35.6,100,30.12,10.0,ENE,2.3,-,N/A,Rain,Light Rain,60,2013-01-04 03:36:00
7:47 PM,35.6,35.6,100,30.12,10.0,East,2.3,-,N/A,,Overcast,80,2013-01-04 03:47:00
7:52 PM,35.6,35.6,100,30.12,10.0,Calm,Calm,-,N/A,Rain,Light Rain,0,2013-01-04 03:52:00
7:58 PM,35.6,35.4,99,30.14,10.0,NW,2.3,-,0.00,Rain,Light Rain,310,2013-01-04 03:58:00
8:16 PM,37.4,35.6,93,30.12,10.0,Variable,2.3,-,N/A,,Overcast,0,2013-01-04 04:16:00
8:58 PM,36.0,35.8,99,30.14,10.0,West,3.5,-,0.00,,Overcast,280,2013-01-04 04:58:00
9:14 PM,35.6,35.6,100,30.13,10.0,West,2.3,-,N/A,Rain,Light Rain,260,2013-01-04 05:14:00
9:25 PM,35.6,35.6,100,30.13,10.0,SW,2.3,-,N/A,,Overcast,220,2013-01-04 05:25:00
9:28 PM,35.6,35.6,100,30.13,9.0,West,2.3,-,N/A,Rain,Light Rain,260,2013-01-04 05:28:00
9:38 PM,35.6,35.6,100,30.13,5.0,Calm,Calm,-,N/A,Rain,Light Rain,0,2013-01-04 05:38:00
9:45 PM,35.6,35.6,100,30.13,9.0,WNW,2.3,-,N/A,,Overcast,300,2013-01-04 05:45:00
9:51 PM,35.6,35.6,100,30.13,9.0,NW,2.3,-,N/A,Rain,Light Rain,320,2013-01-04 05:51:00
9:58 PM,36.1,36.0,99,30.17,8.0,West,2.3,-,0.00,Rain,Light Rain,260,2013-01-04 05:58:00
10:40 PM,37.4,35.6,93,30.15,9.0,WNW,2.3,-,N/A,Rain,Light Rain,290,2013-01-04 06:40:00
10:58 PM,36.7,36.5,99,30.17,5.0,NW,3.5,-,0.01,Rain,Light Rain,320,2013-01-04 06:58:00
11:26 PM,37.4,35.6,93,30.15,8.0,Calm,Calm,-,N/A,,Overcast,0,2013-01-04 07:26:00
11:36 PM,35.6,35.6,100,30.16,6.0,East,1.2,-,N/A,Rain,Light Rain,100,2013-01-04 07:36:00
11:37 PM,35.6,35.6,100,30.16,6.0,East,1.2,-,N/A,,Overcast,90,2013-01-04 07:37:00
11:38 PM,35.6,35.6,100,30.16,6.0,Calm,Calm,-,N/A,Rain,Light Rain,0,2013-01-04 07:38:00
11:43 PM,35.6,35.6,100,30.16,5.0,SE,1.2,-,N/A,Rain,Light Rain,130,2013-01-04 07:43:00
11:48 PM,35.6,35.6,100,30.16,4.0,Calm,Calm,-,N/A,Rain,Light Rain,0,2013-01-04 07:48:00
11:58 PM,35.6,35.6,100,30.18,4.0,Calm,Calm,-,0.01,Rain,Light Rain,0,2013-01-04 07:58:00